Terminal Aerodrome Forecast
Issued by NWS

Current Version | Previous Version | Text Only | Print | Product List | Glossary Off
Versions: 1 2 3 4 5 6 7 8 9 10 11 12 13 14 15 16 17 18 19 20 21 22 23 24 25 26 27 28 29 30 31 32 33 34 35 36 37 38 39 40 41 42 43 44 45 46 47 48 49 50

000
FTUS41 KRNK 190556 CCA
TAFLWB
TAF COR
KLWB 190556Z 1906/2006 00000KT P6SM -RA BKN024 OVC050
     FM190800 VRB04KT P6SM OVC015
     FM191300 31006KT P6SM OVC025
     FM191600 31006KT P6SM SCT040
     FM200300 00000KT P6SM SKC=

USA.gov is the U.S. government's official web portal to all federal, state and local government web resources and services.